Location: Newark
(42.7133°N, 87.7910°W)
Time: 09:50:34
(UTC+00:00)

SR - Pass Details

Date: 23 October 2019
Orbit: 574 x 882 km, 66.7° (Epoch: 12 November)

Event Time Altitude Azimuth Distance (km) Brightness Sun altitude
Rises 11:13:49 0° 333° (NNW) 3,449 ? -11.7°
Reaches altitude 10° 11:16:26 10° 340° (NNW) 2,530 ? -11.2°
Maximum altitude 11:22:03 43° 51° (NE) 1,219 ? -10.2°
Drops below altitude 10° 11:27:39 10° 123° (ESE) 2,518 ? -9.1°
Sets 11:30:13 0° 130° (SE) 3,431 ? -8.7°
